Location: Cisewo
(53.3833°N, 14.9000°E)
Time: 12:55:58
(UTC+00:00)

USA 229 - Pass Details

Date: 31 July 2021
Orbit: 956 x 1256 km, 63.5° (Epoch: 08 August)

Event Time Altitude Azimuth Distance (km) Brightness Sun altitude
Rises 20:44:30 0° 311° (NW) 3,905 8.3 -12.3°
Reaches altitude 10° 20:47:06 10° 312° (NW) 2,988 7.4 -12.5°
Maximum altitude 20:54:18 81° 40° (NE) 1,192 4.0 -13.1°
Enters shadow 21:00:50 15° 128° (SE) 2,781 5.3 -13.6°
